This is the latest recevied weather packets stored in our database for station/object OE2ATN. If no packets are shown the sender has not sent any weather packets the latest 1 day(s).
| Time | Temp. | Humidity | Pressure | Rain* | Wind** | Luminosity | Snow |
|---|---|---|---|---|---|---|---|
| 1777974594 | 21.11° C | 35% | 1015.7 hPa | 0 mm | 3.13 m/s, 106° | - | - |
| 1777974294 | 21.11° C | 34% | 1015.7 hPa | 0 mm | 0.89 m/s, 103° | - | - |
| 1777973994 | 20.56° C | 33% | 1015.8 hPa | 0 mm | 2.68 m/s, 96° | - | - |
| 1777973693 | 21.11° C | 36% | 1015.8 hPa | 0 mm | 2.24 m/s, 131° | - | - |
| 1777973394 | 21.11° C | 33% | 1015.8 hPa | 0 mm | 0.89 m/s, 66° | - | - |
| 1777973094 | 20.56° C | 34% | 1015.9 hPa | 0 mm | 1.79 m/s, 100° | - | - |
| 1777972793 | 20.56° C | 34% | 1015.9 hPa | 0 mm | 1.79 m/s, 123° | - | - |
| 1777972494 | 21.11° C | 38% | 1016 hPa | 0 mm | 1.34 m/s, 116° | - | - |
| 1777972193 | 20.56° C | 38% | 1016.1 hPa | 0 mm | 1.34 m/s, 130° | - | - |
| 1777971893 | 20° C | 38% | 1016.2 hPa | 0 mm | 1.34 m/s, 58° | - | - |
| 1777971593 | 19.44° C | 42% | 1016.2 hPa | 0 mm | 1.79 m/s, 93° | - | - |
| 1777971293 | 19.44° C | 46% | 1016.2 hPa | 0 mm | 2.24 m/s, 99° | - | - |
| 1777970992 | 18.33° C | 53% | 1016.3 hPa | 0 mm | 2.24 m/s, 97° | - | - |
| 1777970692 | 18.33° C | 54% | 1016.3 hPa | 0 mm | 0.89 m/s, 147° | - | - |
| 1777970393 | 17.78° C | 54% | 1016.3 hPa | 0 mm | 0 m/s | - | - |
| 1777970093 | 17.78° C | 54% | 1016.4 hPa | 0 mm | 0 m/s | - | - |
| 1777969792 | 17.78° C | 54% | 1016.6 hPa | 0 mm | 0 m/s | - | - |
| 1777969492 | 17.22° C | 51% | 1016.6 hPa | 0 mm | 0 m/s | - | - |
| 1777969192 | 16.67° C | 52% | 1016.7 hPa | 0 mm | 0 m/s | - | - |
| 1777968892 | 16.67° C | 52% | 1016.9 hPa | 0 mm | 0 m/s | - | - |
| 1777968592 | 16.67° C | 54% | 1016.9 hPa | 0 mm | 0 m/s | - | - |
| 1777968292 | 16.11° C | 55% | 1017 hPa | 0 mm | 0 m/s | - | - |
| 1777967991 | 16.11° C | 53% | 1017 hPa | 0 mm | 0 m/s | - | - |
| 1777967691 | 16.11° C | 55% | 1017.1 hPa | 0 mm | 0 m/s | - | - |
| 1777967391 | 15.56° C | 55% | 1017.2 hPa | 0 mm | 0 m/s | - | - |
* Rain latest hour (hover to see other rain measurements)
** Current wind speed in m/s (hover to see current wind gust speed)